sat.trackr.live / text

‹ back to catalog

ONEWEB-0721

NORAD 56725 · 2023-068R

PAYLOAD ACTIVE UNKNOWN

§ Identity

Operator
Country
UK
Launch date
2023-05-20
Launch site
AFWTR
Launch vehicle
Mass (kg)
RCS (m²)

Purposes: comms

External: N2YO · Heavens-Above · Gunter

§ Orbital elements

Epoch: 2026-09-19T20:45:35.518752Z

Period
108.89 min
Inclination
86.6744°
Eccentricity
0.0001655
Mean motion
13.22475071 rev/d
Perigee alt
1,174.0 km
Apogee alt
1,176.5 km
Semi-major
7,553.4 km
B*
-4.8374e-5
RAAN
55.2645°
Arg perigee
94.2350°
Mean anomaly
265.8973°
Rev number
17,045

§ Raw data

ONEWEB-07211 56725U 23068R   26262.86499443 -.00000006  00000+0 -48374-4 0  99962 56725  86.6744  55.2645 0001655  94.2350 265.8973 13.22475071170458

JSON: /api/v1/satellites/56725 · /tle

For live sub-satellite position, see the globe view (requires WebGL).

§ Visibility from observer

Set your observer location to see the next 7 days of passes ≥ 10°. The values pass through the URL so the page stays shareable.

No JS? Fill the form by hand. The geolocation button needs JavaScript.